| time (UTC) | temp F | wind direction | speed MPH | gust MPH | rain 1hr in | rain 24hr in | rain mn in | humidity % | barometer mb |
| 20260906151736 | 71 | 60 | 0.0 | 5.0 | 0.00 | 0.00 | 0.00 | 57 | 1022.6 |
| 20260906151233 | 71 | 39 | 0.0 | 5.0 | 0.00 | 0.00 | 0.00 | 58 | 1022.5 |
| 20260906150709 | 72 | 30 | 1.0 | 8.0 | 0.00 | 0.00 | 0.00 | 56 | 1022.4 |
| 20260906150212 | 73 | 205 | 0.0 | 8.0 | 0.00 | 0.00 | 0.00 | 56 | 1022.5 |
| 20260906145657 | 73 | 235 | 0.0 | 5.0 | 0.00 | 0.00 | 0.00 | 57 | 1022.7 |
| 20260906145134 | 72 | 103 | 0.0 | 2.0 | 0.00 | 0.00 | 0.00 | 56 | 1022.8 |
| 20260906144633 | 72 | 6 | 0.0 | 2.0 | 0.00 | 0.00 | 0.00 | 57 | 1022.9 |
| 20260906144133 | 71 | 39 | 0.0 | 5.0 | 0.00 | 0.00 | 0.00 | 59 | 1022.9 |
| 20260906143628 | 71 | 72 | 0.0 | 5.0 | 0.00 | 0.00 | 0.00 | 61 | 1022.9 |
| 20260906143110 | 70 | 53 | 0.0 | 6.0 | 0.00 | 0.00 | 0.00 | 61 | 1022.9 |
| 20260906142611 | 70 | 42 | 0.0 | 6.0 | 0.00 | 0.00 | 0.00 | 60 | 1022.8 |
| 20260906141615 | 70 | 198 | 0.0 | 5.0 | 0.00 | 0.00 | 0.00 | 59 | 1022.8 |
| 20260906140538 | 71 | 346 | 0.0 | 3.0 | 0.00 | 0.00 | 0.00 | 59 | 1023.1 |
| 20260906140037 | 72 | 53 | 0.0 | 9.0 | 0.00 | 0.00 | 0.00 | 59 | 1023.1 |
| 20260906135036 | 71 | 230 | 0.0 | 5.0 | 0.00 | 0.00 | 0.00 | 60 | 1023.3 |
| 20260906134534 | 71 | 252 | 0.0 | 5.0 | 0.00 | 0.00 | 0.00 | 60 | 1023.3 |
| 20260906133522 | 71 | 210 | 1.0 | 8.0 | 0.00 | 0.00 | 0.00 | 60 | 1023.3 |
| 20260906133022 | 71 | 204 | 1.0 | 8.0 | 0.00 | 0.00 | 0.00 | 60 | 1023.4 |
| 20260906132530 | 71 | 213 | 0.0 | 5.0 | 0.00 | 0.00 | 0.00 | 60 | 1023.5 |
| 20260906132017 | 71 | 223 | 0.0 | 0.0 | 0.00 | 0.00 | 0.00 | 57 | 1023.6 |
| 20260906131520 | 71 | 186 | 0.0 | 3.0 | 0.00 | 0.00 | 0.00 | 57 | 1023.7 |
| 20260906131118 | 71 | 203 | 0.0 | 3.0 | 0.00 | 0.00 | 0.00 | 58 | 1023.8 |
| 20260906130022 | 71 | 39 | 0.0 | 8.0 | 0.00 | 0.00 | 0.00 | 57 | 1023.9 |
| 20260906125434 | 71 | 193 | 0.0 | 8.0 | 0.00 | 0.00 | 0.00 | 60 | 1024.0 |
| 20260906124935 | 71 | 51 | 0.0 | 5.0 | 0.00 | 0.00 | 0.00 | 59 | 1024.0 |
| 20260906124436 | 71 | 68 | 0.0 | 5.0 | 0.00 | 0.00 | 0.00 | 60 | 1024.0 |
| 20260906123438 | 69 | 51 | 0.0 | 3.0 | 0.00 | 0.00 | 0.00 | 58 | 1024.1 |
| 20260906122938 | 69 | 269 | 0.0 | 5.0 | 0.00 | 0.00 | 0.00 | 59 | 1024.1 |
| 20260906122435 | 69 | 179 | 0.0 | 5.0 | 0.00 | 0.00 | 0.00 | 59 | 1024.2 |
| 20260906121933 | 69 | 227 | 1.0 | 0.0 | 0.00 | 0.00 | 0.00 | 60 | 1024.1 |
| 20260906121433 | 69 | 131 | 1.0 | 6.0 | 0.00 | 0.00 | 0.00 | 60 | 1024.2 |
| 20260906120909 | 69 | 17 | 1.0 | 6.0 | 0.00 | 0.00 | 0.00 | 61 | 1024.3 |
| 20260906120333 | 69 | 198 | 0.0 | 6.0 | 0.00 | 0.00 | 0.00 | 60 | 1024.3 |
| 20260906115308 | 70 | 96 | 0.0 | 9.0 | 0.00 | 0.00 | 0.00 | 60 | 1024.4 |
| 20260906114314 | 69 | 91 | 0.0 | 6.0 | 0.00 | 0.00 | 0.00 | 60 | 1024.4 |
| 20260906113318 | 71 | 86 | 0.0 | 2.0 | 0.00 | 0.00 | 0.00 | 59 | 1024.4 |
| 20260906112818 | 72 | 55 | 0.0 | 7.0 | 0.00 | 0.00 | 0.00 | 60 | 1024.4 |
| 20260906112307 | 72 | 210 | 0.0 | 7.0 | 0.00 | 0.00 | 0.00 | 62 | 1024.4 |
| 20260906111311 | 71 | 57 | 0.0 | 7.0 | 0.00 | 0.00 | 0.00 | 64 | 1024.7 |
| 20260906110807 | 70 | 53 | 0.0 | 7.0 | 0.00 | 0.00 | 0.00 | 62 | 1024.6 |
| 20260906110322 | 70 | 54 | 1.0 | 0.0 | 0.00 | 0.00 | 0.00 | 64 | 1024.8 |
| 20260906105803 | 70 | 60 | 1.0 | 8.0 | 0.00 | 0.00 | 0.00 | 64 | 1024.8 |
| 20260906104709 | 70 | 307 | 0.0 | 7.0 | 0.00 | 0.00 | 0.00 | 63 | 1024.8 |
| 20260906104208 | 70 | 92 | 0.0 | 7.0 | 0.00 | 0.00 | 0.00 | 63 | 1024.8 |
| 20260906103709 | 70 | 84 | 0.0 | 0.0 | 0.00 | 0.00 | 0.00 | 63 | 1024.9 |
| 20260906103208 | 70 | 68 | 0.0 | 1.0 | 0.00 | 0.00 | 0.00 | 63 | 1024.9 |
| 20260906102709 | 70 | 333 | 0.0 | 1.0 | 0.00 | 0.00 | 0.00 | 64 | 1024.9 |
| 20260906102209 | 70 | 53 | 0.0 | 0.0 | 0.00 | 0.00 | 0.00 | 66 | 1025.0 |
| 20260906101711 | 69 | 208 | 0.0 | 0.0 | 0.00 | 0.00 | 0.00 | 65 | 1025.1 |
| 20260906101208 | 69 | 42 | 0.0 | 0.0 | 0.00 | 0.00 | 0.00 | 66 | 1025.1 |
| 20260906100706 | 69 | 235 | 0.0 | 0.0 | 0.00 | 0.00 | 0.00 | 66 | 1025.2 |
| 20260906100137 | 69 | 80 | 0.0 | 0.0 | 0.00 | 0.00 | 0.00 | 67 | 1025.2 |
| 20260906095636 | 69 | 65 | 0.0 | 0.0 | 0.00 | 0.00 | 0.00 | 66 | 1025.2 |
| 20260906094611 | 69 | 11 | 0.0 | 0.0 | 0.00 | 0.00 | 0.00 | 68 | 1025.5 |
| 20260906094110 | 68 | 209 | 0.0 | 0.0 | 0.00 | 0.00 | 0.00 | 69 | 1025.5 |
| 20260906093611 | 68 | 261 | 0.0 | 0.0 | 0.00 | 0.00 | 0.00 | 71 | 1025.5 |
| 20260906093116 | 68 | 30 | 0.0 | 0.0 | 0.00 | 0.00 | 0.00 | 70 | 1025.6 |
| 20260906092607 | 67 | 46 | 0.0 | 0.0 | 0.00 | 0.00 | 0.00 | 71 | 1025.6 |
| 20260906092115 | 67 | 58 | 0.0 | 0.0 | 0.00 | 0.00 | 0.00 | 72 | 1025.6 |
| 20260906091612 | 67 | 67 | 0.0 | 0.0 | 0.00 | 0.00 | 0.00 | 72 | 1025.7 |
| 20260906091053 | 67 | 223 | 0.0 | 0.0 | 0.00 | 0.00 | 0.00 | 72 | 1025.8 |
| 20260906090543 | 66 | 134 | 0.0 | 0.0 | 0.00 | 0.00 | 0.00 | 73 | 1025.7 |
| 20260906090058 | 66 | 60 | 0.0 | 0.0 | 0.00 | 0.00 | 0.00 | 73 | 1025.8 |
| 20260906085517 | 66 | 247 | 0.0 | 0.0 | 0.00 | 0.00 | 0.00 | 73 | 1025.8 |
| 20260906085035 | 66 | 238 | 0.0 | 0.0 | 0.00 | 0.00 | 0.00 | 72 | 1025.7 |
| 20260906084506 | 66 | 295 | 0.0 | 0.0 | 0.00 | 0.00 | 0.00 | 72 | 1025.7 |
| 20260906084005 | 66 | 56 | 0.0 | 0.0 | 0.00 | 0.00 | 0.00 | 75 | 1025.8 |
| 20260906083505 | 65 | 89 | 0.0 | 0.0 | 0.00 | 0.00 | 0.00 | 74 | 1025.8 |
| 20260906082933 | 65 | 280 | 0.0 | 0.0 | 0.00 | 0.00 | 0.00 | 74 | 1025.8 |
| 20260906082423 | 65 | 162 | 0.0 | 0.0 | 0.00 | 0.00 | 0.00 | 75 | 1025.8 |
| 20260906081910 | 65 | 208 | 0.0 | 0.0 | 0.00 | 0.00 | 0.00 | 77 | 1025.9 |
| 20260906081408 | 65 | 188 | 0.0 | 0.0 | 0.00 | 0.00 | 0.00 | 78 | 1025.8 |
| 20260906080908 | 64 | 63 | 0.0 | 0.0 | 0.00 | 0.00 | 0.00 | 79 | 1025.9 |
| 20260906080409 | 64 | 216 | 0.0 | 0.0 | 0.00 | 0.00 | 0.00 | 81 | 1025.9 |
| 20260906075907 | 64 | 277 | 0.0 | 0.0 | 0.00 | 0.00 | 0.00 | 80 | 1025.9 |
| 20260906075409 | 63 | 335 | 0.0 | 0.0 | 0.00 | 0.00 | 0.00 | 80 | 1025.9 |
| 20260906074906 | 63 | 233 | 0.0 | 0.0 | 0.00 | 0.00 | 0.00 | 82 | 1025.8 |
| 20260906074331 | 63 | 34 | 0.0 | 1.0 | 0.00 | 0.00 | 0.00 | 82 | 1025.8 |
| 20260906073833 | 62 | 60 | 0.0 | 1.0 | 0.00 | 0.00 | 0.00 | 82 | 1025.9 |
| 20260906073331 | 62 | 271 | 0.0 | 0.0 | 0.00 | 0.00 | 0.00 | 84 | 1025.9 |
| 20260906072307 | 61 | 18 | 0.0 | 0.0 | 0.00 | 0.00 | 0.00 | 84 | 1025.7 |
| 20260906071806 | 60 | 216 | 0.0 | 0.0 | 0.00 | 0.00 | 0.00 | 84 | 1025.6 |
| 20260906071309 | 60 | 269 | 0.0 | 0.0 | 0.00 | 0.00 | 0.00 | 84 | 1025.6 |
| 20260906070810 | 60 | 30 | 0.0 | 0.0 | 0.00 | 0.00 | 0.00 | 84 | 1025.6 |
| 20260906070307 | 60 | 65 | 0.0 | 0.0 | 0.00 | 0.00 | 0.00 | 85 | 1025.6 |
| 20260906065805 | 60 | 172 | 0.0 | 0.0 | 0.00 | 0.00 | 0.00 | 86 | 1025.6 |
| 20260906065306 | 59 | 214 | 0.0 | 1.0 | 0.00 | 0.00 | 0.00 | 87 | 1025.6 |
| 20260906064733 | 58 | 204 | 0.0 | 1.0 | 0.00 | 0.00 | 0.00 | 87 | 1025.5 |
| 20260906064235 | 58 | 255 | 0.0 | 0.0 | 0.00 | 0.00 | 0.00 | 88 | 1025.5 |
| 20260906063710 | 58 | 245 | 0.0 | 0.0 | 0.00 | 0.00 | 0.00 | 88 | 1025.6 |
| 20260906063208 | 57 | 242 | 0.0 | 0.0 | 0.00 | 0.00 | 0.00 | 88 | 1025.6 |
| 20260906062708 | 57 | 184 | 0.0 | 0.0 | 0.00 | 0.00 | 0.00 | 89 | 1025.6 |
| 20260906062210 | 57 | 217 | 0.0 | 0.0 | 0.00 | 0.00 | 0.00 | 90 | 1025.5 |
| 20260906061706 | 56 | 181 | 0.0 | 0.0 | 0.00 | 0.00 | 0.00 | 90 | 1025.5 |
| 20260906061208 | 56 | 178 | 0.0 | 0.0 | 0.00 | 0.00 | 0.00 | 90 | 1025.6 |
| 20260906060204 | 55 | 63 | 0.0 | 0.0 | 0.00 | 0.00 | 0.00 | 91 | 1025.6 |
| 20260906055632 | 55 | 250 | 0.0 | 0.0 | 0.00 | 0.00 | 0.00 | 91 | 1025.6 |
| 20260906055132 | 55 | 227 | 0.0 | 0.0 | 0.00 | 0.00 | 0.00 | 91 | 1025.6 |
| 20260906054633 | 55 | 226 | 0.0 | 0.0 | 0.00 | 0.00 | 0.00 | 91 | 1025.6 |
| 20260906054128 | 54 | 245 | 0.0 | 0.0 | 0.00 | 0.00 | 0.00 | 91 | 1025.6 |
| 20260906053107 | 54 | 80 | 0.0 | 0.0 | 0.00 | 0.00 | 0.00 | 91 | 1025.6 |
| 20260906052610 | 54 | 213 | 0.0 | 0.0 | 0.00 | 0.00 | 0.00 | 91 | 1025.6 |
| 20260906052105 | 54 | 236 | 0.0 | 0.0 | 0.00 | 0.00 | 0.00 | 91 | 1025.5 |
| 20260906051605 | 54 | 221 | 0.0 | 0.0 | 0.00 | 0.00 | 0.00 | 91 | 1025.5 |
| 20260906051034 | 54 | 180 | 0.0 | 0.0 | 0.00 | 0.00 | 0.00 | 91 | 1025.5 |
| 20260906050542 | 54 | 242 | 0.0 | 0.0 | 0.00 | 0.00 | 0.00 | 91 | 1025.5 |
| 20260906045545 | 54 | 237 | 0.0 | 0.0 | 0.00 | 0.00 | 0.00 | 91 | 1025.5 |
| 20260906045031 | 54 | 55 | 0.0 | 0.0 | 0.00 | 0.00 | 0.00 | 91 | 1025.5 |
| 20260906044533 | 54 | 210 | 0.0 | 0.0 | 0.00 | 0.00 | 0.00 | 91 | 1025.5 |
| 20260906044015 | 54 | 214 | 0.0 | 0.0 | 0.00 | 0.00 | 0.00 | 91 | 1025.5 |
| 20260906043525 | 54 | 233 | 0.0 | 0.0 | 0.00 | 0.00 | 0.00 | 91 | 1025.5 |
| 20260906043039 | 54 | 212 | 0.0 | 0.0 | 0.00 | 0.00 | 0.00 | 91 | 1025.5 |
| 20260906042537 | 54 | 217 | 0.0 | 0.0 | 0.00 | 0.00 | 0.00 | 91 | 1025.5 |
| 20260906042023 | 54 | 63 | 0.0 | 0.0 | 0.00 | 0.00 | 0.00 | 91 | 1025.3 |
| 20260906041523 | 54 | 37 | 0.0 | 0.0 | 0.00 | 0.00 | 0.00 | 91 | 1025.3 |
| 20260906040954 | 54 | 54 | 0.0 | 0.0 | 0.00 | 0.00 | 0.00 | 91 | 1025.4 |
| 20260906040439 | 54 | 58 | 0.0 | 0.0 | 0.00 | 0.00 | 0.00 | 91 | 1025.3 |
| 20260906035936 | 54 | 58 | 0.0 | 0.0 | 0.00 | 0.00 | 0.00 | 91 | 1025.3 |
| 20260906035409 | 54 | 58 | 0.0 | 0.0 | 0.00 | 0.00 | 0.00 | 91 | 1025.5 |
| 20260906034908 | 54 | 206 | 0.0 | 0.0 | 0.00 | 0.00 | 0.00 | 91 | 1025.6 |
| 20260906034358 | 54 | 203 | 0.0 | 0.0 | 0.00 | 0.00 | 0.00 | 91 | 1025.6 |
| 20260906033839 | 54 | 56 | 0.0 | 0.0 | 0.00 | 0.00 | 0.00 | 91 | 1025.5 |
| 20260906033335 | 54 | 255 | 0.0 | 0.0 | 0.00 | 0.00 | 0.00 | 91 | 1025.5 |
| 20260906032833 | 54 | 297 | 0.0 | 0.0 | 0.00 | 0.00 | 0.00 | 91 | 1025.6 |
| 20260906032333 | 54 | 266 | 0.0 | 0.0 | 0.00 | 0.00 | 0.00 | 91 | 1025.6 |
| 20260906031834 | 54 | 241 | 0.0 | 0.0 | 0.00 | 0.00 | 0.00 | 92 | 1025.7 |
| 20260906031309 | 54 | 231 | 0.0 | 0.0 | 0.00 | 0.00 | 0.00 | 91 | 1025.7 |
| 20260906030821 | 53 | 62 | 0.0 | 0.0 | 0.00 | 0.00 | 0.00 | 91 | 1025.8 |
| 20260906030312 | 53 | 63 | 0.0 | 0.0 | 0.00 | 0.00 | 0.00 | 92 | 1025.8 |
| 20260906025811 | 53 | 63 | 0.0 | 0.0 | 0.00 | 0.00 | 0.00 | 92 | 1025.8 |
| 20260906025307 | 53 | 117 | 0.0 | 0.0 | 0.00 | 0.00 | 0.00 | 92 | 1026.0 |
| 20260906024817 | 53 | 72 | 0.0 | 0.0 | 0.00 | 0.00 | 0.00 | 91 | 1026.2 |
| 20260906024318 | 53 | 72 | 0.0 | 0.0 | 0.00 | 0.00 | 0.00 | 92 | 1026.2 |
| 20260906023813 | 53 | 71 | 0.0 | 0.0 | 0.00 | 0.00 | 0.00 | 91 | 1026.1 |
| 20260906022811 | 53 | 71 | 0.0 | 0.0 | 0.00 | 0.00 | 0.00 | 92 | 1026.1 |
| 20260906022309 | 53 | 71 | 0.0 | 0.0 | 0.00 | 0.00 | 0.00 | 92 | 1026.2 |
| 20260906020810 | 53 | 117 | 0.0 | 0.0 | 0.00 | 0.00 | 0.00 | 92 | 1026.4 |
| 20260906020315 | 53 | 111 | 0.0 | 0.0 | 0.00 | 0.00 | 0.00 | 92 | 1026.3 |
| 20260906015308 | 53 | 111 | 0.0 | 0.0 | 0.00 | 0.00 | 0.00 | 92 | 1026.4 |
| 20260906014314 | 52 | 217 | 0.0 | 0.0 | 0.00 | 0.00 | 0.00 | 91 | 1026.1 |
| 20260906013810 | 52 | 217 | 0.0 | 0.0 | 0.00 | 0.00 | 0.00 | 92 | 1026.2 |
| 20260906013309 | 52 | 217 | 0.0 | 0.0 | 0.00 | 0.00 | 0.00 | 92 | 1026.1 |
| 20260906012811 | 52 | 217 | 0.0 | 0.0 | 0.00 | 0.00 | 0.00 | 91 | 1026.1 |
| 20260906012310 | 52 | 167 | 0.0 | 0.0 | 0.00 | 0.00 | 0.00 | 91 | 1026.1 |
| 20260906011818 | 52 | 167 | 0.0 | 0.0 | 0.00 | 0.00 | 0.00 | 91 | 1026.2 |
| 20260906011312 | 52 | 167 | 0.0 | 0.0 | 0.00 | 0.00 | 0.00 | 91 | 1026.2 |
| 20260906010741 | 52 | 167 | 0.0 | 0.0 | 0.00 | 0.00 | 0.00 | 91 | 1026.1 |
| 20260906005735 | 52 | 167 | 0.0 | 0.0 | 0.00 | 0.00 | 0.00 | 91 | 1026.2 |
| 20260906005234 | 52 | 167 | 0.0 | 0.0 | 0.00 | 0.00 | 0.00 | 91 | 1026.1 |
| 20260906004710 | 52 | 167 | 0.0 | 0.0 | 0.00 | 0.00 | 0.00 | 91 | 1026.0 |
| 20260906004207 | 52 | 167 | 0.0 | 0.0 | 0.00 | 0.00 | 0.00 | 91 | 1026.0 |
| 20260906003710 | 52 | 167 | 0.0 | 0.0 | 0.00 | 0.00 | 0.00 | 91 | 1025.9 |
| 20260906003211 | 53 | 167 | 0.0 | 0.0 | 0.00 | 0.00 | 0.00 | 91 | 1025.9 |
| 20260906002207 | 53 | 167 | 0.0 | 0.0 | 0.00 | 0.00 | 0.00 | 91 | 1025.9 |
| 20260906001715 | 53 | 167 | 0.0 | 0.0 | 0.00 | 0.00 | 0.00 | 91 | 1025.9 |
| 20260906001207 | 53 | 167 | 0.0 | 0.0 | 0.00 | 0.00 | 0.00 | 91 | 1025.9 |
| 20260906000708 | 53 | 167 | 0.0 | 0.0 | 0.00 | 0.00 | 0.00 | 91 | 1026.0 |
| 20260906000220 | 53 | 167 | 0.0 | 0.0 | 0.00 | 0.00 | 0.00 | 91 | 1026.0 |
| 20260905235637 | 53 | 167 | 0.0 | 0.0 | 0.00 | 0.00 | 0.00 | 91 | 1026.1 |
| 20260905234632 | 53 | 167 | 0.0 | 0.0 | 0.00 | 0.00 | 0.00 | 91 | 1026.1 |
| 20260905234134 | 53 | 167 | 0.0 | 0.0 | 0.00 | 0.00 | 0.00 | 91 | 1026.1 |
| 20260905233608 | 53 | 167 | 0.0 | 0.0 | 0.00 | 0.00 | 0.00 | 91 | 1026.0 |
| 20260905233110 | 53 | 167 | 0.0 | 0.0 | 0.00 | 0.00 | 0.00 | 91 | 1026.1 |
| 20260905232610 | 53 | 167 | 0.0 | 0.0 | 0.00 | 0.00 | 0.00 | 91 | 1026.1 |
| 20260905232114 | 53 | 127 | 0.0 | 0.0 | 0.00 | 0.00 | 0.00 | 91 | 1026.0 |
| 20260905231620 | 53 | 127 | 0.0 | 0.0 | 0.00 | 0.00 | 0.00 | 91 | 1026.0 |
| 20260905230609 | 53 | 127 | 0.0 | 0.0 | 0.00 | 0.00 | 0.00 | 91 | 1025.9 |
| 20260905225607 | 53 | 127 | 0.0 | 0.0 | 0.00 | 0.00 | 0.00 | 91 | 1025.9 |
| 20260905225110 | 54 | 127 | 0.0 | 0.0 | 0.00 | 0.00 | 0.00 | 91 | 1025.8 |
| 20260905224036 | 54 | 127 | 0.0 | 0.0 | 0.00 | 0.00 | 0.00 | 90 | 1025.9 |
| 20260905223534 | 54 | 127 | 0.0 | 0.0 | 0.00 | 0.00 | 0.00 | 90 | 1025.7 |
| 20260905223035 | 54 | 127 | 0.0 | 0.0 | 0.00 | 0.00 | 0.00 | 90 | 1025.7 |
| 20260905222535 | 54 | 127 | 0.0 | 0.0 | 0.00 | 0.00 | 0.00 | 90 | 1025.6 |
| 20260905222034 | 54 | 127 | 0.0 | 0.0 | 0.00 | 0.00 | 0.00 | 90 | 1025.7 |
| 20260905221013 | 54 | 127 | 0.0 | 0.0 | 0.00 | 0.00 | 0.00 | 90 | 1025.7 |
| 20260905220523 | 54 | 127 | 0.0 | 0.0 | 0.00 | 0.00 | 0.00 | 90 | 1025.7 |
| 20260905220017 | 54 | 127 | 0.0 | 0.0 | 0.00 | 0.00 | 0.00 | 90 | 1025.7 |
| 20260905215025 | 54 | 127 | 0.0 | 0.0 | 0.00 | 0.00 | 0.00 | 89 | 1025.6 |
| 20260905214525 | 54 | 127 | 0.0 | 0.0 | 0.00 | 0.00 | 0.00 | 89 | 1025.6 |
| 20260905214024 | 54 | 127 | 0.0 | 0.0 | 0.00 | 0.00 | 0.00 | 89 | 1025.6 |
| 20260905213512 | 54 | 127 | 0.0 | 0.0 | 0.00 | 0.00 | 0.00 | 89 | 1025.6 |
| 20260905212955 | 54 | 127 | 0.0 | 0.0 | 0.00 | 0.00 | 0.00 | 89 | 1025.5 |
| 20260905212434 | 54 | 127 | 0.0 | 0.0 | 0.00 | 0.00 | 0.00 | 89 | 1025.6 |
| 20260905211928 | 54 | 127 | 0.0 | 0.0 | 0.00 | 0.00 | 0.00 | 89 | 1025.5 |
| 20260905211420 | 54 | 127 | 0.0 | 0.0 | 0.00 | 0.00 | 0.00 | 89 | 1025.4 |
| 20260905210409 | 55 | 98 | 0.0 | 0.0 | 0.00 | 0.00 | 0.00 | 88 | 1025.4 |
| 20260905205908 | 55 | 98 | 0.0 | 0.0 | 0.00 | 0.00 | 0.00 | 88 | 1025.4 |
| 20260905205409 | 55 | 98 | 0.0 | 0.0 | 0.00 | 0.00 | 0.00 | 88 | 1025.3 |
| 20260905204909 | 55 | 98 | 0.0 | 0.0 | 0.00 | 0.00 | 0.00 | 87 | 1025.4 |
| 20260905204411 | 55 | 98 | 0.0 | 0.0 | 0.00 | 0.00 | 0.00 | 87 | 1025.4 |
| 20260905203908 | 55 | 98 | 0.0 | 0.0 | 0.00 | 0.00 | 0.00 | 87 | 1025.4 |
| 20260905203409 | 56 | 98 | 0.0 | 0.0 | 0.00 | 0.00 | 0.00 | 86 | 1025.3 |
| 20260905202833 | 56 | 98 | 0.0 | 0.0 | 0.00 | 0.00 | 0.00 | 86 | 1025.3 |
| 20260905202334 | 56 | 98 | 0.0 | 0.0 | 0.00 | 0.00 | 0.00 | 85 | 1025.2 |
| 20260905201832 | 56 | 98 | 0.0 | 0.0 | 0.00 | 0.00 | 0.00 | 83 | 1025.2 |
| 20260905201311 | 57 | 98 | 0.0 | 0.0 | 0.00 | 0.00 | 0.00 | 82 | 1025.2 |
| 20260905200808 | 57 | 98 | 0.0 | 0.0 | 0.00 | 0.00 | 0.00 | 82 | 1025.2 |
| 20260905200310 | 58 | 98 | 0.0 | 0.0 | 0.00 | 0.00 | 0.00 | 80 | 1025.1 |
| 20260905195812 | 58 | 98 | 0.0 | 0.0 | 0.00 | 0.00 | 0.00 | 80 | 1025.1 |
| 20260905195307 | 58 | 98 | 0.0 | 0.0 | 0.00 | 0.00 | 0.00 | 78 | 1025.2 |
| 20260905194808 | 58 | 98 | 0.0 | 0.0 | 0.00 | 0.00 | 0.00 | 77 | 1025.2 |
| 20260905194308 | 59 | 98 | 0.0 | 0.0 | 0.00 | 0.00 | 0.00 | 77 | 1025.2 |
| 20260905193805 | 59 | 98 | 0.0 | 0.0 | 0.00 | 0.00 | 0.00 | 76 | 1025.2 |
| 20260905193305 | 59 | 98 | 0.0 | 0.0 | 0.00 | 0.00 | 0.00 | 76 | 1025.1 |
| 20260905192757 | 59 | 99 | 0.0 | 0.0 | 0.00 | 0.00 | 0.00 | 76 | 1025.1 |
| 20260905192232 | 60 | 79 | 0.0 | 0.0 | 0.00 | 0.00 | 0.00 | 76 | 1025.0 |
| 20260905191733 | 60 | 94 | 0.0 | 0.0 | 0.00 | 0.00 | 0.00 | 74 | 1025.0 |
| 20260905191238 | 60 | 98 | 0.0 | 2.0 | 0.00 | 0.00 | 0.00 | 74 | 1025.0 |
| 20260905190714 | 60 | 82 | 0.0 | 2.0 | 0.00 | 0.00 | 0.00 | 73 | 1024.9 |
| 20260905190211 | 60 | 84 | 0.0 | 1.0 | 0.00 | 0.00 | 0.00 | 72 | 1025.0 |
| 20260905185711 | 60 | 83 | 0.0 | 2.0 | 0.00 | 0.00 | 0.00 | 72 | 1024.9 |
| 20260905184708 | 60 | 345 | 0.0 | 0.0 | 0.00 | 0.00 | 0.00 | 72 | 1024.9 |
| 20260905184139 | 61 | 80 | 0.0 | 3.0 | 0.00 | 0.00 | 0.00 | 71 | 1024.8 |
| 20260905183634 | 61 | 100 | 0.0 | 3.0 | 0.00 | 0.00 | 0.00 | 71 | 1024.7 |
| 20260905183134 | 61 | 71 | 0.0 | 2.0 | 0.00 | 0.00 | 0.00 | 71 | 1024.7 |
| 20260905182111 | 61 | 96 | 0.0 | 1.0 | 0.00 | 0.00 | 0.00 | 72 | 1024.6 |
| 20260905181612 | 61 | 97 | 0.0 | 2.0 | 0.00 | 0.00 | 0.00 | 71 | 1024.5 |
| 20260905181110 | 61 | 117 | 0.0 | 2.0 | 0.00 | 0.00 | 0.00 | 71 | 1024.6 |
| 20260905180112 | 62 | 33 | 1.0 | 6.0 | 0.00 | 0.00 | 0.00 | 69 | 1024.5 |
| 20260905175610 | 62 | 326 | 1.0 | 6.0 | 0.00 | 0.00 | 0.00 | 68 | 1024.5 |
| 20260905175109 | 62 | 13 | 1.0 | 6.0 | 0.00 | 0.00 | 0.00 | 67 | 1024.4 |
| 20260905174606 | 62 | 117 | 1.0 | 10.0 | 0.00 | 0.00 | 0.00 | 66 | 1024.4 |
| 20260905174106 | 62 | 328 | 0.0 | 10.0 | 0.00 | 0.00 | 0.00 | 66 | 1024.4 |
| 20260905173537 | 63 | 316 | 0.0 | 9.0 | 0.00 | 0.00 | 0.00 | 68 | 1024.3 |
| 20260905173035 | 63 | 11 | 0.0 | 4.0 | 0.00 | 0.00 | 0.00 | 67 | 1024.3 |
| 20260905172537 | 63 | 77 | 1.0 | 10.0 | 0.00 | 0.00 | 0.00 | 67 | 1024.3 |
| 20260905172036 | 64 | 80 | 1.0 | 10.0 | 0.00 | 0.00 | 0.00 | 66 | 1024.3 |
| 20260905171518 | 64 | 53 | 1.0 | 12.0 | 0.00 | 0.00 | 0.00 | 67 | 1024.3 |
| 20260905170456 | 65 | 20 | 1.0 | 0.0 | 0.00 | 0.00 | 0.00 | 69 | 1024.1 |
| 20260905165935 | 65 | 20 | 1.0 | 11.0 | 0.00 | 0.00 | 0.00 | 68 | 1024.1 |
| 20260905165435 | 65 | 40 | 1.0 | 11.0 | 0.00 | 0.00 | 0.00 | 69 | 1024.2 |
| 20260905164409 | 65 | 121 | 2.0 | 14.0 | 0.00 | 0.00 | 0.00 | 69 | 1024.0 |
| 20260905163909 | 64 | 56 | 1.0 | 14.0 | 0.00 | 0.00 | 0.00 | 70 | 1023.9 |
| 20260905163412 | 64 | 63 | 1.0 | 13.0 | 0.00 | 0.00 | 0.00 | 71 | 1023.9 |
| 20260905162908 | 64 | 44 | 1.0 | 9.0 | 0.00 | 0.00 | 0.00 | 73 | 1023.9 |
| 20260905162413 | 64 | 315 | 2.0 | 13.0 | 0.00 | 0.00 | 0.00 | 71 | 1023.8 |
| 20260905161911 | 63 | 357 | 2.0 | 13.0 | 0.00 | 0.00 | 0.00 | 71 | 1023.7 |
| 20260905161402 | 63 | 80 | 1.0 | 13.0 | 0.00 | 0.00 | 0.00 | 71 | 1023.6 |
| 20260905160840 | 63 | 63 | 1.0 | 13.0 | 0.00 | 0.00 | 0.00 | 73 | 1023.5 |
| 20260905155839 | 63 | 146 | 1.0 | 13.0 | 0.00 | 0.00 | 0.00 | 73 | 1023.4 |
| 20260905155313 | 64 | 96 | 1.0 | 13.0 | 0.00 | 0.00 | 0.00 | 73 | 1023.4 |
| 20260905154817 | 64 | 158 | 0.0 | 7.0 | 0.00 | 0.00 | 0.00 | 71 | 1023.1 |
| 20260905154308 | 64 | 95 | 0.0 | 11.0 | 0.00 | 0.00 | 0.00 | 72 | 1023.2 |
| 20260905153809 | 64 | 311 | 1.0 | 11.0 | 0.00 | 0.00 | 0.00 | 71 | 1023.2 |
| 20260905152737 | 65 | 298 | 3.0 | 17.0 | 0.00 | 0.00 | 0.00 | 70 | 1023.0 |
| 20260905152233 | 65 | 24 | 2.0 | 17.0 | 0.00 | 0.00 | 0.00 | 69 | 1023.1 |